Location: Newark
(55.7083°N, 13.1992°E)
Time: 22:54:43
(UTC+00:00)

Envisat - Pass Details

Date: 05 October 2022
Orbit: 763 x 765 km, 98.2° (Epoch: 08 December)

Event Time Altitude Azimuth Distance (km) Brightness Sun altitude
Rises 04:19:39 0° 13° (NNE) 3,249 6.5 -9.0°
Reaches altitude 10° 04:22:00 10° 10° (N) 2,319 5.7 -8.6°
Maximum altitude 04:26:59 57° 293° (WNW) 908 3.1 -7.9°
Drops below altitude 10° 04:31:57 10° 216° (SW) 2,303 5.1 -7.2°
Sets 04:34:16 0° 212° (SSW) 3,225 5.9 -6.9°
